TimePST,TemperatureF,Dew PointF,Humidity,Sea Level PressureIn,VisibilityMPH,Wind Direction,Wind SpeedMPH,Gust SpeedMPH,PrecipitationIn,Events,Conditions,WindDirDegrees,DateUTC
12:13 AM,46.4,44.6,93,30.42,10.0,South,3.5,-,N/A,,Overcast,170,2013-02-13 08:13:00
12:35 AM,46.4,42.8,87,30.43,10.0,Calm,Calm,-,N/A,,Overcast,0,2013-02-13 08:35:00
12:53 AM,46.0,43.0,89,30.43,10.0,Calm,Calm,-,N/A,,Overcast,0,2013-02-13 08:53:00
1:53 AM,46.0,43.0,89,30.43,10.0,Calm,Calm,-,N/A,,Overcast,0,2013-02-13 09:53:00
2:53 AM,45.0,42.1,90,30.43,10.0,SE,3.5,-,N/A,,Scattered Clouds,140,2013-02-13 10:53:00
3:31 AM,42.8,41.0,93,30.42,10.0,Calm,Calm,-,N/A,,Mostly Cloudy,0,2013-02-13 11:31:00
3:53 AM,44.1,42.1,93,30.42,10.0,Calm,Calm,-,N/A,,Overcast,0,2013-02-13 11:53:00
4:41 AM,42.8,42.8,100,30.41,10.0,Calm,Calm,-,N/A,,Overcast,0,2013-02-13 12:41:00
4:53 AM,43.0,42.1,97,30.42,10.0,WNW,3.5,-,N/A,,Overcast,290,2013-02-13 12:53:00
5:53 AM,44.1,42.1,93,30.42,10.0,Calm,Calm,-,N/A,,Overcast,0,2013-02-13 13:53:00
6:26 AM,44.6,42.8,93,30.42,10.0,Calm,Calm,-,N/A,,Overcast,0,2013-02-13 14:26:00
6:53 AM,44.1,42.1,93,30.43,10.0,West,3.5,-,N/A,,Overcast,280,2013-02-13 14:53:00
7:14 AM,44.6,42.8,93,30.43,3.0,NW,4.6,-,0.01,Rain,Light Rain,310,2013-02-13 15:14:00
7:25 AM,44.6,44.6,100,30.44,2.5,WNW,4.6,-,0.01,Rain,Light Rain,290,2013-02-13 15:25:00
7:35 AM,44.6,44.6,100,30.44,4.0,WNW,3.5,-,0.01,Rain,Light Rain,290,2013-02-13 15:35:00
7:53 AM,46.0,43.0,89,30.44,9.0,North,4.6,-,0.01,,Overcast,350,2013-02-13 15:53:00
8:53 AM,46.0,43.0,89,30.46,10.0,NNW,4.6,-,N/A,,Overcast,340,2013-02-13 16:53:00
9:53 AM,46.9,43.0,86,30.48,10.0,North,4.6,-,N/A,,Unknown,10,2013-02-13 17:53:00
10:07 AM,48.2,42.8,82,30.47,10.0,Variable,4.6,-,N/A,,Overcast,0,2013-02-13 18:07:00
10:53 AM,48.0,42.1,80,30.48,10.0,NNW,6.9,-,N/A,,Overcast,330,2013-02-13 18:53:00
11:02 AM,48.2,42.8,82,30.48,10.0,North,5.8,-,N/A,,Overcast,350,2013-02-13 19:02:00
11:53 AM,48.0,42.1,80,30.48,10.0,NNW,3.5,-,N/A,,Overcast,330,2013-02-13 19:53:00
12:53 PM,50.0,42.1,74,30.46,10.0,Variable,4.6,-,N/A,,Overcast,0,2013-02-13 20:53:00
1:35 PM,51.8,41.0,67,30.45,10.0,Calm,Calm,-,N/A,,Mostly Cloudy,0,2013-02-13 21:35:00
1:53 PM,51.1,39.0,63,30.45,10.0,Calm,Calm,-,N/A,,Overcast,0,2013-02-13 21:53:00
2:53 PM,52.0,35.1,53,30.44,10.0,NW,5.8,-,N/A,,Mostly Cloudy,310,2013-02-13 22:53:00
3:53 PM,51.1,37.9,61,30.45,10.0,NNW,8.1,-,N/A,,Overcast,340,2013-02-13 23:53:00
4:53 PM,51.1,37.9,61,30.45,10.0,Variable,3.5,-,N/A,,Scattered Clouds,0,2013-02-14 00:53:00
5:53 PM,48.0,37.9,68,30.46,10.0,Calm,Calm,-,N/A,,Mostly Cloudy,0,2013-02-14 01:53:00
6:53 PM,43.0,37.9,82,30.47,10.0,WNW,3.5,-,N/A,,Partly Cloudy,300,2013-02-14 02:53:00
7:53 PM,41.0,37.0,86,30.48,10.0,West,3.5,-,N/A,,Mostly Cloudy,280,2013-02-14 03:53:00
8:53 PM,41.0,37.0,86,30.49,10.0,Calm,Calm,-,N/A,,Scattered Clouds,0,2013-02-14 04:53:00
9:53 PM,37.9,35.1,89,30.51,10.0,Calm,Calm,-,N/A,,Partly Cloudy,0,2013-02-14 05:53:00
10:53 PM,37.9,36.0,93,30.52,10.0,WNW,3.5,-,N/A,,Overcast,290,2013-02-14 06:53:00
11:53 PM,36.0,35.1,97,30.52,9.0,Calm,Calm,-,N/A,,Mostly Cloudy,0,2013-02-14 07:53:00